Vorticity
10 10 10 11 12 12 12 12 11 9 9 8 8 8 8 7 6 5 4 4 4 3 3 2 3 3 5 7 7 7 8 11 13 16 13 9 12 9 8 8 7 7 8 9 9 10 9 10 8 5 4 4 5 6 7 8 7 8 8 9 9 11 10 8 6 6 8 4 15 13 4 23 24 12 7 1 7 5 -3 -8 -6 7 13 12 12 11 12 15
7 7 7 7 7 8 9 10 11 11 12 10 10 9 8 9 8 8 7 5 5 4 3 2 3 2 3 5 6 6 7 7 8 14 15 12 12 9 9 10 9 8 7 8 8 9 9 9 9 7 7 5 4 4 5 6 6 7 7 8 8 9 10 11 9 9 8 3 12 9 -5 5 9 8 13 9 1 -4 1 3 6 18 18 14 12 11 12 13
6 6 5 6 5 6 6 6 8 8 10 11 11 11 9 9 9 9 10 9 8 7 4 2 2 2 2 3 5 6 7 6 6 11 13 12 13 11 10 10 10 10 8 8 7 8 9 9 10 8 8 7 5 3 4 4 4 5 6 6 5 7 9 10 12 11 10 8 9 5 -8 -8 -1 3 6 11 11 2 6 15 13 12 13 11 9 8 8 8
5 5 5 5 5 5 5 5 5 5 6 7 9 11 11 10 9 9 9 10 10 10 9 7 5 5 4 4 5 6 7 7 7 9 9 9 13 12 11 10 10 10 10 10 8 7 8 8 10 10 8 8 8 5 4 3 4 5 4 4 4 6 9 10 12 12 13 12 7 2 -2 -4 -2 3 3 4 10 8 3 9 12 8 7 5 5 8 6 6
5 5 5 5 6 6 6 6 6 6 5 5 5 7 9 10 11 10 9 9 9 10 11 11 11 10 8 7 6 5 7 8 5 7 8 6 10 11 10 10 11 11 10 11 10 8 7 7 8 9 9 9 9 7 6 5 5 5 4 5 4 4 6 7 10 13 20 25 15 -3 -5 8 10 -0 0 2 3 7 5 8 10 4 5 5 4 6 4 5
7 8 8 8 8 8 9 9 9 9 8 7 6 5 6 7 9 10 10 9 9 9 9 10 11 12 13 12 10 7 7 9 6 6 8 6 8 10 10 10 10 11 10 11 12 10 9 7 7 8 9 10 9 8 9 7 5 5 6 6 5 5 5 4 8 11 13 23 25 4 -13 0 12 1 -1 3 0 4 9 12 9 1 3 6 5 5 5 7
12 13 14 14 15 15 14 13 13 13 12 11 9 7 6 6 7 9 10 10 10 9 10 10 10 11 13 14 15 11 7 10 11 8 7 7 6 8 10 9 10 10 10 11 12 12 12 9 7 7 8 9 11 10 8 8 6 5 6 7 7 7 7 4 7 10 4 3 8 4 -7 -8 -3 1 14 20 11 7 6 5 4 2 2 2 3 3 4 6
13 14 16 18 19 20 20 19 18 17 17 16 15 12 10 8 8 8 9 10 10 9 9 10 11 11 10 12 15 14 11 14 15 10 8 8 7 7 9 9 9 9 9 10 12 13 12 11 9 7 6 7 11 12 10 8 6 7 6 6 7 7 9 6 5 9 8 3 -2 -5 2 6 -4 -3 15 21 15 16 21 16 8 6 4 2 4 3 5 8
16 16 17 18 18 20 21 21 22 21 20 20 19 17 15 12 10 9 9 10 11 10 9 9 11 12 10 10 12 14 17 17 12 8 7 6 6 6 7 8 8 8 9 9 10 12 11 12 11 9 7 6 8 12 13 10 7 8 7 6 7 7 8 7 4 7 8 7 5 -2 4 16 13 8 11 12 10 14 23 23 14 7 4 4 4 -1 3 11
19 19 18 19 18 18 18 18 19 20 20 20 20 20 19 17 14 11 10 11 11 11 10 9 10 13 12 10 10 12 16 14 11 10 6 5 7 7 6 7 8 8 8 9 10 11 13 14 13 11 9 6 6 9 11 12 9 8 7 6 7 6 7 7 4 4 5 5 6 4 2 9 17 19 12 8 9 10 14 19 16 9 5 8 11 5 -2 -0
21 20 20 19 18 18 17 16 16 16 16 17 18 18 19 20 18 15 13 12 12 12 12 9 9 12 13 10 9 12 15 14 15 14 10 13 13 11 10 8 8 8 7 8 9 11 12 13 14 11 9 7 5 6 9 11 10 9 7 6 6 6 6 7 5 3 3 4 6 7 5 3 5 9 6 2 6 9 9 10 14 15 14 10 11 16 5 -5
20 20 20 20 20 21 21 21 20 19 18 17 16 15 16 16 18 19 17 13 12 13 13 11 9 10 13 12 9 13 15 14 16 14 9 13 15 12 11 10 11 10 8 8 9 11 12 12 13 11 9 9 7 5 7 10 11 9 7 6 6 6 5 6 6 5 4 4 5 5 5 7 5 4 5 4 5 8 6 3 8 13 17 8 -1 8 11 4
17 17 19 19 19 19 19 19 19 20 20 21 21 20 19 15 14 16 17 17 15 13 12 13 11 9 13 12 8 12 15 12 13 14 10 10 13 12 11 11 12 12 9 8 9 11 12 11 11 13 11 9 8 7 7 9 11 9 8 6 6 6 8 8 6 5 4 3 4 4 4 5 7 6 3 5 6 7 5 4 6 7 12 13 3 5 14 19
18 18 16 15 14 13 12 12 12 13 14 15 16 19 21 21 19 17 16 17 18 15 12 13 13 12 12 8 6 9 12 10 9 13 15 15 15 11 10 11 10 11 10 8 8 11 13 13 11 10 11 10 9 7 6 7 9 9 9 6 4 6 9 10 5 3 4 4 4 6 6 1 5 7 3 6 7 4 6 6 7 6 9 12 5 5 12 16
17 15 14 12 10 8 7 6 6 7 8 10 10 11 12 15 18 21 19 17 19 19 14 13 13 16 15 6 5 10 10 12 13 14 18 18 17 12 8 10 9 9 9 7 7 8 11 13 12 10 11 11 10 8 5 4 5 7 6 5 4 5 7 9 8 6 5 5 6 7 8 2 4 8 3 5 6 3 6 6 6 8 10 14 7 7 13 11
13 11 9 7 5 4 4 4 5 5 7 9 10 11 10 8 9 13 17 17 20 21 18 15 12 16 16 5 3 9 12 15 13 10 12 12 13 13 10 9 8 8 8 8 7 7 9 11 12 13 13 10 8 9 8 5 3 3 3 5 5 4 5 8 10 11 7 5 8 9 8 6 6 7 2 4 6 3 6 8 11 14 14 14 8 3 7 11
8 6 4 3 4 5 5 7 8 8 10 12 13 16 17 16 11 8 10 13 17 20 21 19 16 17 15 9 10 11 10 12 12 10 11 14 14 14 12 10 9 9 8 8 7 6 8 10 10 10 11 10 9 8 7 5 4 4 4 4 5 6 5 6 11 12 8 5 8 10 7 7 7 4 3 5 6 4 5 6 11 17 18 15 10 5 7 10
4 4 4 4 5 6 7 9 10 12 15 18 20 21 23 24 21 16 11 11 12 15 17 19 23 20 11 9 14 15 11 9 10 11 11 13 15 14 12 11 10 9 7 7 7 7 7 9 11 10 9 10 9 6 5 8 9 6 5 5 5 7 4 6 11 11 9 6 6 10 7 7 9 5 4 3 4 6 8 7 7 9 11 10 9 7 8 12
4 4 4 4 4 6 9 12 14 16 18 20 23 23 24 25 27 25 19 16 12 10 13 17 25 23 13 10 11 12 14 10 7 8 13 14 14 15 13 11 9 7 5 4 5 6 7 8 7 7 7 10 11 9 8 9 10 8 7 8 6 6 5 7 10 10 10 8 5 7 7 9 9 6 7 4 2 6 7 9 9 7 7 7 7 5 8 14
3 3 3 4 6 10 16 19 18 18 18 18 16 15 18 24 27 26 24 22 17 12 11 13 21 21 16 16 14 14 14 12 8 5 10 14 14 15 13 10 9 7 6 5 6 6 7 8 6 7 10 12 13 12 11 9 9 10 8 8 7 6 6 8 11 8 7 10 7 2 5 15 12 4 6 4 2 7 9 10 10 11 12 9 4 3 8 11
4 4 4 6 12 18 21 20 16 16 15 12 9 9 14 18 21 22 25 27 22 19 14 12 17 15 16 20 16 17 18 13 12 6 4 9 13 15 13 10 9 7 9 7 7 7 5 6 7 9 11 13 13 12 12 10 9 9 7 8 9 8 6 7 12 11 7 12 14 5 1 13 19 12 7 1 -0 7 11 11 11 11 8 6 2 -0 3 4
5 7 11 15 18 20 20 19 19 18 15 13 12 13 15 16 18 19 23 26 23 24 20 15 18 10 11 25 19 16 21 16 14 14 11 8 9 14 14 12 10 8 11 8 4 3 3 6 7 9 11 11 11 10 10 11 9 9 8 7 7 7 7 8 12 12 8 8 14 14 3 6 19 18 8 2 0 5 10 11 10 8 6 8 8 8 10 9
8 12 17 21 22 22 25 26 24 21 19 19 17 17 17 15 13 12 20 26 22 28 28 17 20 11 3 22 26 17 18 17 14 13 16 13 8 13 14 12 12 10 8 7 6 4 4 7 8 7 10 9 8 10 10 9 9 10 9 9 7 6 7 10 15 12 3 2 9 11 4 4 15 15 8 5 2 2 7 10 9 7 6 9 10 8 14 20
12 16 23 29 33 37 38 33 29 27 27 26 26 28 28 26 24 21 27 35 28 29 35 24 21 13 1 15 28 21 17 16 15 11 13 17 12 11 14 12 13 10 7 8 9 8 7 10 11 8 8 10 9 12 12 9 8 9 9 9 9 7 7 11 18 12 -1 -1 5 2 -2 2 9 13 13 11 7 3 5 7 8 10 8 5 6 3 5 16
18 25 34 41 45 45 37 31 30 32 33 38 42 40 36 35 36 29 27 38 42 41 43 35 29 18 0 11 25 23 19 14 15 12 8 14 14 11 14 13 11 10 9 8 9 9 7 7 11 11 10 11 11 11 11 11 10 10 9 8 10 11 10 14 21 16 2 -1 3 -0 -3 0 7 16 18 12 9 5 3 6 7 11 14 7 2 2 3 9
29 36 42 45 40 27 17 19 25 28 30 36 39 32 26 24 24 21 18 29 37 43 49 37 30 25 9 15 27 25 25 16 13 17 13 12 12 11 14 13 11 11 10 9 9 9 8 6 9 12 13 12 12 10 8 9 9 9 10 9 13 14 5 10 26 21 5 3 5 3 4 6 8 20 24 14 11 11 6 6 7 9 14 12 6 5 7 9
37 42 45 36 18 5 4 11 19 27 28 25 24 21 22 27 27 10 3 23 27 30 55 50 31 28 18 20 27 24 26 21 13 18 18 16 13 9 11 13 11 10 8 8 8 7 6 8 8 9 12 11 10 10 7 9 10 10 14 12 17 21 1 4 30 17 -6 3 8 -3 -2 6 3 5 13 7 3 14 13 7 8 9 10 10 8 8 10 11
43 44 36 15 2 6 15 17 19 24 24 23 20 15 16 26 32 15 9 38 32 12 41 55 37 27 18 17 24 24 27 26 20 18 16 17 16 10 9 12 12 10 9 7 7 8 7 9 9 7 11 10 9 11 9 11 11 11 17 13 15 19 0 3 24 4 -15 7 20 8 -0 6 1 -13 -7 3 1 8 15 12 9 9 11 11 5 5 10 13
40 35 18 -1 2 13 18 25 31 23 19 31 30 19 14 13 22 25 22 24 12 6 27 43 42 35 26 24 23 21 23 23 21 19 17 17 15 12 11 12 10 9 13 10 5 7 8 9 11 9 11 11 10 11 11 13 10 11 19 16 12 11 2 9 17 -3 -9 3 9 12 8 8 7 -8 -10 4 3 -4 -2 6 13 11 10 8 5 4 5 8
30 26 7 -4 9 16 17 34 45 30 22 31 27 16 11 10 18 24 13 -6 -3 19 21 20 36 33 27 33 26 21 22 19 19 16 14 18 17 15 13 11 9 6 10 12 5 7 9 10 12 11 10 12 13 11 12 13 10 14 23 14 3 4 10 16 4 -12 2 8 -5 0 7 7 8 4 4 10 11 4 -5 -4 7 16 18 10 5 12 11 8
19 21 11 15 31 31 30 44 49 42 42 40 35 32 24 25 29 14 -8 -19 -2 22 10 10 36 31 21 29 28 29 24 13 18 17 9 13 19 19 13 10 10 3 4 9 5 3 6 9 12 11 10 10 13 13 11 13 12 14 21 10 -4 2 17 18 -6 -18 8 21 9 5 8 10 9 9 17 22 23 18 5 -4 -7 -4 13 13 4 10 14 12
24 29 29 35 34 20 17 20 18 18 23 21 25 31 23 20 20 1 -13 -9 12 29 16 13 28 25 22 25 25 31 24 12 17 18 11 9 15 19 13 10 12 6 3 5 6 5 4 10 12 10 13 10 9 13 11 12 14 11 13 9 1 5 15 12 -11 -15 10 14 5 8 6 3 8 13 20 23 26 26 16 9 1 -8 -1 7 7 10 12 14
30 28 28 23 9 -1 1 0 -0 4 5 5 8 6 4 8 8 4 6 14 24 28 19 15 16 17 25 27 24 26 21 16 16 16 15 11 11 16 15 13 14 11 8 5 8 6 2 11 15 10 13 10 8 11 9 9 11 10 10 11 9 4 4 9 -4 -10 5 -2 -14 7 23 15 6 2 8 14 18 24 22 15 11 9 4 -1 5 15 14 12
3 5 8 4 -4 -6 -3 -5 2 12 12 13 10 -1 1 14 20 20 16 18 25 27 28 27 20 18 24 28 27 22 18 16 13 15 17 11 8 13 16 15 13 11 11 7 6 4 -2 1 10 10 11 11 8 8 10 12 12 11 12 15 17 8 -5 1 2 -5 5 -5 -31 -20 17 32 19 -0 -2 6 9 11 17 16 11 10 9 0 -3 7 15 14
-17 -0 7 10 10 6 8 7 7 12 9 11 12 5 8 17 24 22 14 21 31 32 32 25 16 16 24 32 25 19 23 14 10 16 14 10 9 10 13 13 13 12 8 7 7 7 7 4 8 13 13 15 13 9 12 14 14 15 14 12 11 6 2 5 -2 -8 7 11 -16 -29 -9 15 21 12 2 -0 7 8 1 5 12 10 8 6 -2 -1 11 15
-4 6 9 13 11 8 13 8 2 6 7 12 16 15 15 14 14 12 18 33 32 25 23 16 14 10 20 38 19 11 28 18 14 21 11 11 11 7 13 10 11 14 6 8 10 6 8 12 17 15 11 17 19 19 18 13 17 17 7 10 8 -1 14 29 13 -6 2 15 5 -14 -12 4 12 11 7 -0 -1 1 -5 -1 18 28 21 11 7 7 5 7
15 16 10 3 -3 2 8 -1 0 10 10 13 14 14 17 15 14 17 27 33 24 25 21 11 18 10 19 43 14 -1 23 19 22 27 9 12 11 5 14 9 8 16 8 6 12 9 5 11 24 18 7 11 9 14 18 9 15 19 9 16 12 -10 1 26 25 7 -4 1 6 -5 -15 -4 6 2 9 17 4 -8 -3 -2 3 25 37 26 16 11 5 4
24 28 16 3 -1 6 6 -4 1 10 11 13 7 7 19 22 24 28 30 25 21 32 24 13 25 15 19 41 10 -3 18 12 22 32 12 11 12 6 12 7 8 17 13 5 6 15 9 6 21 19 11 15 1 -3 10 4 5 17 21 18 2 -12 -5 10 23 26 10 -11 -9 5 -5 -14 1 3 -2 15 18 5 2 -1 -6 6 19 20 14 6 4 12
18 18 6 -2 -5 -3 -3 -5 6 15 18 19 7 4 14 17 22 30 29 19 15 19 14 17 21 4 15 31 3 3 26 16 18 29 17 11 11 10 9 7 10 15 19 5 -10 5 9 -2 7 9 11 25 15 0 6 13 10 10 21 20 1 -5 -3 -1 10 26 36 14 -15 -4 4 -14 -13 -13 -27 -17 4 5 -2 1 7 2 -6 2 13 13 9 12
13 9 2 1 -2 -3 -0 6 19 21 16 19 17 14 12 10 26 40 28 11 9 9 10 20 10 -3 20 24 -7 1 26 24 22 23 18 13 12 12 7 7 11 15 23 5 -19 1 14 -1 -1 7 7 12 22 23 12 14 18 6 7 15 12 6 -6 -4 2 1 28 48 20 1 4 4 0 -9 -9 5 9 2 -4 0 6 3 4 12 15 18 17 10
12 9 5 12 22 24 20 21 25 17 10 15 18 13 9 14 33 41 19 4 14 17 15 16 -1 5 34 20 -3 11 15 18 29 22 16 16 14 13 7 3 6 13 23 8 -12 3 18 7 2 19 24 6 17 35 10 -1 20 18 4 1 14 21 -1 -5 5 -11 -7 24 38 28 12 13 15 -2 -1 18 22 17 9 3 -2 -6 -3 -5 -8 4 15 10
9 8 2 4 17 23 20 22 19 11 13 18 19 15 14 24 35 31 15 11 20 18 12 5 -8 18 42 4 -6 27 19 13 29 21 16 22 17 14 11 4 4 15 19 5 -5 -1 11 14 1 14 41 27 23 32 4 -5 23 34 16 -6 4 25 7 -8 3 4 -2 -5 15 38 30 20 18 2 -7 -4 6 15 10 6 6 4 5 -4 -10 2 10 5
7 9 7 2 5 6 8 14 8 4 6 7 17 24 19 22 29 25 19 16 15 10 7 2 -7 23 39 -11 -20 25 22 10 25 21 18 25 18 14 18 6 3 17 8 -9 -1 0 0 13 0 2 34 36 30 29 4 -7 4 17 19 -2 -7 18 21 4 -8 3 21 7 -4 15 29 33 26 12 6 -1 -0 5 -1 2 7 9 27 29 12 4 -2 -7
10 9 8 5 6 3 4 7 0 0 2 -2 11 24 17 13 18 25 26 15 8 7 9 10 4 23 35 -3 -14 19 14 3 23 27 20 22 18 16 17 2 0 19 4 -14 8 6 -8 10 8 -3 15 23 24 19 1 -6 -5 5 20 9 -2 14 31 23 -12 -18 11 11 -2 0 11 31 29 9 6 6 12 19 9 5 4 0 15 26 21 17 9 3
13 12 10 9 9 6 6 6 1 3 2 -4 4 12 14 14 16 27 29 12 9 14 13 21 22 22 24 4 0 19 12 2 20 30 23 20 19 19 13 -4 1 21 1 -11 16 5 -15 13 18 -5 -4 6 14 15 4 1 2 8 15 9 2 4 20 32 7 -13 -2 -2 3 6 -1 17 27 12 10 5 0 12 14 12 16 11 10 13 17 21 17 13
13 14 13 13 14 11 6 3 5 8 1 -3 2 5 14 21 19 24 16 -1 12 20 9 19 30 21 14 11 15 20 11 7 17 27 28 22 21 27 16 -7 -4 11 -7 -11 12 -2 -18 16 28 6 -1 2 12 24 20 6 -1 6 6 -4 -4 -4 9 33 23 6 6 -4 1 13 1 5 20 15 17 12 -7 -9 -3 -0 5 7 10 18 23 25 26 26
12 15 14 17 20 19 11 1 2 8 5 4 7 10 18 20 16 23 18 5 17 21 9 20 28 13 6 13 17 12 12 21 22 22 30 29 26 33 25 -3 -12 -0 -3 -6 3 -8 -13 13 21 9 7 8 12 21 27 19 8 12 13 -1 -7 -10 -6 14 12 8 18 3 -7 10 6 -2 8 12 13 19 18 12 6 3 4 6 7 6 3 4 13 22
6 12 13 18 21 20 18 10 4 8 8 7 12 20 25 19 11 16 17 14 18 13 11 24 21 8 13 19 12 5 11 20 18 15 21 23 22 29 29 8 -11 -6 1 -3 -5 -10 -8 8 16 17 23 26 22 17 22 28 20 12 13 11 6 -9 -18 -5 0 3 19 11 -9 3 12 -1 -2 4 3 5 13 16 14 14 14 18 22 16 3 -3 -3 -1
-1 6 9 15 18 18 18 14 9 9 9 12 21 23 16 10 7 6 7 14 19 13 11 13 6 7 22 22 8 2 1 -1 2 8 7 5 10 22 29 17 -6 -9 -0 2 2 -3 -8 2 11 10 10 15 22 21 18 27 29 15 6 13 21 11 -4 1 7 1 7 13 2 -2 7 7 -1 -6 -4 -1 2 2 5 7 6 13 25 24 16 15 16 11
1 1 6 10 13 15 15 14 13 14 14 15 16 11 5 8 9 6 8 14 18 18 16 9 1 6 22 25 16 8 -1 -8 -1 11 10 2 3 9 23 27 9 -7 -7 -1 6 2 -7 2 8 -3 -12 -5 12 16 9 16 30 23 8 10 20 20 9 3 7 6 2 8 13 7 1 5 5 -2 -5 -2 -2 -3 -3 -5 -7 -3 3 2 2 10 20 25
12 3 4 8 11 11 12 14 16 20 20 12 7 10 19 22 9 -1 4 15 23 25 17 7 3 7 17 25 22 14 6 -1 -0 9 13 12 8 2 11 31 27 4 -8 -5 -1 -3 -9 -2 12 9 -3 -2 8 9 1 8 24 26 18 13 13 14 15 7 -1 5 8 5 11 15 5 -2 3 5 3 -1 -6 -8 -7 -2 1 -1 -5 -7 -6 1 9 16
22 11 4 6 10 10 10 11 16 26 23 8 2 10 17 13 -2 -10 -1 16 26 23 13 7 10 13 16 17 17 17 16 9 4 10 15 18 22 14 7 24 34 16 1 -1 -5 -8 -14 -13 7 17 7 5 12 8 1 5 15 22 23 21 15 13 21 22 8 1 4 3 4 12 11 4 4 7 10 15 18 15 11 16 21 13 6 5 2 -1 -2 -3
Height
5715 5713 5712 5711 5710 5709 5707 5707 5706 5706 5705 5705 5705 5705 5705 5706 5707 5708 5709 5710 5711 5712 5713 5715 5716 5718 5720 5721 5724 5726 5729 5731 5733 5736 5740 5744 5744 5746 5751 5754 5757 5760 5763 5765 5768 5770 5773 5777 5779 5782 5784 5786 5789 5793 5795 5797 5799 5800 5801 5803 5806 5809 5813 5818 5821 5823 5826 5831 5834 5835 5836 5839 5841 5840 5840 5841 5840 5842 5844 5844 5847 5850 5849 5847 5848 5850 5853 5854
5708 5707 5706 5705 5703 5702 5701 5700 5699 5699 5698 5698 5698 5698 5698 5698 5699 5700 5701 5702 5703 5705 5707 5708 5709 5711 5713 5715 5717 5720 5723 5725 5728 5731 5735 5736 5737 5741 5745 5748 5751 5753 5756 5760 5763 5765 5768 5771 5774 5776 5778 5781 5785 5788 5790 5792 5794 5795 5798 5799 5803 5808 5811 5816 5818 5820 5824 5827 5831 5832 5832 5834 5835 5834 5834 5835 5835 5838 5841 5841 5845 5846 5846 5846 5846 5848 5850 5850
5702 5700 5699 5698 5696 5695 5694 5693 5692 5691 5691 5690 5690 5690 5690 5691 5691 5692 5693 5694 5695 5697 5699 5701 5701 5703 5705 5707 5710 5713 5716 5719 5722 5726 5728 5729 5731 5735 5738 5741 5744 5746 5750 5754 5758 5760 5762 5766 5768 5770 5772 5775 5779 5783 5785 5787 5789 5791 5794 5796 5802 5807 5809 5812 5815 5818 5820 5824 5830 5829 5827 5828 5828 5829 5829 5830 5832 5835 5837 5839 5844 5843 5843 5844 5844 5846 5846 5847
5695 5693 5692 5690 5689 5688 5687 5685 5684 5684 5683 5683 5682 5682 5682 5682 5683 5684 5685 5686 5687 5689 5691 5693 5694 5696 5697 5700 5703 5706 5710 5713 5716 5719 5720 5722 5725 5729 5731 5735 5738 5741 5744 5748 5752 5754 5757 5760 5762 5765 5767 5770 5774 5777 5780 5783 5785 5788 5790 5794 5801 5804 5805 5809 5812 5815 5817 5822 5827 5824 5822 5822 5822 5825 5826 5828 5831 5832 5833 5837 5841 5840 5840 5840 5840 5842 5843 5843
5687 5686 5684 5682 5681 5680 5679 5677 5676 5675 5675 5674 5674 5674 5674 5674 5675 5675 5677 5677 5679 5681 5683 5685 5687 5688 5690 5692 5695 5699 5703 5706 5709 5712 5714 5716 5719 5723 5726 5729 5733 5735 5739 5742 5746 5749 5752 5755 5757 5760 5763 5766 5769 5772 5776 5780 5782 5784 5787 5792 5798 5800 5803 5806 5809 5812 5815 5819 5822 5820 5819 5817 5816 5820 5823 5827 5829 5829 5831 5834 5836 5836 5836 5837 5837 5838 5839 5840
5679 5677 5675 5674 5672 5670 5669 5668 5667 5666 5666 5665 5665 5665 5665 5666 5666 5667 5668 5669 5670 5672 5674 5677 5678 5680 5683 5685 5688 5692 5695 5699 5702 5705 5707 5709 5713 5717 5720 5723 5727 5730 5733 5737 5740 5743 5747 5749 5752 5755 5758 5762 5765 5768 5773 5777 5779 5780 5784 5789 5793 5796 5800 5804 5806 5809 5812 5815 5817 5816 5815 5813 5811 5815 5822 5826 5826 5827 5830 5832 5831 5830 5832 5835 5835 5835 5837 5837
5670 5667 5666 5664 5662 5661 5660 5658 5658 5657 5656 5656 5656 5656 5656 5657 5657 5658 5659 5660 5662 5663 5665 5668 5670 5673 5675 5677 5681 5684 5688 5692 5694 5697 5701 5704 5707 5710 5714 5717 5721 5724 5727 5731 5735 5738 5742 5745 5747 5751 5754 5758 5761 5765 5770 5773 5775 5777 5781 5785 5790 5794 5796 5801 5803 5805 5807 5808 5810 5809 5810 5810 5809 5813 5820 5823 5823 5823 5828 5830 5827 5825 5827 5831 5832 5833 5833 5831
5659 5657 5655 5653 5652 5651 5649 5649 5647 5647 5647 5646 5646 5646 5647 5647 5648 5649 5650 5652 5653 5655 5657 5659 5662 5664 5666 5670 5673 5676 5683 5685 5685 5689 5694 5698 5700 5703 5707 5711 5715 5718 5722 5726 5730 5733 5736 5740 5743 5747 5750 5754 5758 5761 5765 5769 5771 5773 5777 5781 5786 5790 5793 5798 5800 5801 5803 5803 5804 5805 5806 5809 5808 5812 5819 5819 5819 5818 5823 5827 5824 5823 5824 5825 5829 5828 5826 5825
5649 5647 5645 5643 5642 5640 5639 5639 5637 5637 5637 5636 5637 5636 5637 5637 5639 5640 5641 5643 5644 5646 5648 5650 5654 5656 5659 5663 5664 5671 5677 5675 5676 5681 5685 5689 5693 5696 5701 5705 5709 5713 5716 5720 5724 5727 5731 5735 5738 5742 5746 5750 5754 5757 5761 5763 5767 5771 5774 5778 5782 5786 5790 5794 5796 5797 5799 5799 5800 5803 5805 5808 5809 5813 5817 5817 5816 5814 5819 5823 5820 5819 5818 5820 5824 5822 5821 5823
5641 5638 5636 5634 5632 5631 5630 5629 5628 5628 5627 5627 5627 5627 5628 5628 5629 5630 5631 5633 5635 5638 5639 5642 5645 5647 5652 5655 5658 5666 5667 5664 5669 5674 5677 5683 5687 5691 5694 5698 5703 5707 5710 5714 5718 5722 5726 5731 5734 5738 5742 5746 5749 5753 5756 5759 5764 5768 5770 5774 5778 5782 5786 5790 5792 5793 5794 5794 5796 5801 5803 5807 5809 5811 5813 5814 5815 5813 5813 5816 5816 5814 5813 5816 5819 5817 5820 5824
5632 5630 5628 5626 5624 5623 5621 5620 5620 5619 5618 5618 5617 5618 5618 5619 5620 5621 5622 5624 5625 5628 5630 5634 5636 5639 5644 5647 5654 5659 5655 5657 5664 5667 5672 5679 5683 5687 5689 5692 5697 5701 5705 5709 5713 5718 5722 5726 5730 5733 5736 5740 5744 5748 5752 5756 5760 5764 5766 5769 5773 5777 5781 5785 5788 5789 5790 5791 5793 5798 5801 5804 5807 5807 5810 5812 5812 5810 5808 5810 5813 5813 5812 5815 5817 5817 5821 5824
5625 5622 5620 5618 5616 5615 5613 5612 5611 5610 5609 5609 5608 5609 5609 5610 5611 5611 5613 5614 5616 5619 5621 5625 5627 5631 5635 5640 5650 5651 5646 5652 5658 5659 5666 5674 5679 5683 5686 5689 5693 5697 5701 5705 5709 5713 5717 5721 5724 5727 5731 5736 5740 5744 5749 5753 5756 5759 5761 5764 5768 5772 5775 5780 5783 5785 5787 5788 5789 5792 5796 5801 5804 5805 5809 5809 5807 5807 5805 5806 5811 5812 5813 5815 5816 5819 5822 5823
5617 5615 5613 5611 5609 5607 5606 5604 5603 5602 5601 5600 5600 5600 5600 5601 5601 5602 5604 5605 5607 5609 5612 5615 5619 5624 5627 5634 5645 5642 5639 5646 5650 5653 5660 5668 5673 5677 5681 5685 5689 5694 5698 5701 5705 5708 5712 5715 5719 5722 5727 5732 5736 5740 5745 5749 5752 5755 5757 5759 5763 5766 5770 5775 5779 5780 5783 5785 5785 5788 5793 5799 5802 5803 5806 5804 5803 5804 5803 5804 5808 5809 5812 5814 5815 5818 5820 5821
5611 5609 5607 5605 5603 5601 5599 5597 5596 5595 5594 5593 5593 5592 5592 5592 5591 5592 5593 5595 5597 5599 5603 5606 5611 5615 5619 5630 5636 5631 5633 5639 5643 5648 5655 5662 5666 5669 5674 5679 5683 5688 5692 5696 5700 5703 5707 5710 5714 5717 5722 5727 5731 5736 5741 5744 5747 5751 5753 5753 5757 5760 5764 5770 5774 5776 5780 5782 5783 5786 5791 5797 5799 5800 5801 5800 5799 5802 5801 5802 5805 5808 5811 5812 5813 5814 5816 5817
5606 5603 5601 5599 5597 5595 5593 5591 5589 5588 5587 5586 5585 5585 5584 5584 5583 5583 5584 5585 5587 5590 5594 5598 5602 5606 5613 5624 5625 5622 5629 5634 5638 5644 5649 5656 5660 5662 5667 5671 5676 5680 5685 5690 5694 5698 5702 5705 5708 5712 5717 5722 5727 5731 5735 5738 5741 5745 5746 5747 5751 5756 5761 5766 5770 5773 5777 5779 5782 5785 5788 5793 5796 5796 5797 5797 5797 5800 5800 5801 5803 5807 5810 5811 5811 5812 5813 5814
5601 5598 5596 5594 5591 5589 5587 5584 5582 5580 5579 5578 5577 5577 5576 5575 5574 5574 5575 5576 5577 5582 5586 5590 5594 5597 5606 5616 5616 5616 5625 5628 5630 5636 5641 5648 5653 5656 5660 5665 5669 5674 5679 5684 5688 5693 5696 5700 5704 5709 5713 5718 5722 5727 5730 5732 5735 5738 5740 5743 5748 5753 5757 5762 5767 5772 5775 5777 5780 5783 5786 5790 5792 5792 5794 5794 5795 5798 5798 5799 5801 5804 5806 5808 5809 5809 5811 5812
5596 5593 5590 5587 5584 5581 5579 5576 5574 5571 5570 5569 5568 5567 5566 5565 5565 5566 5566 5567 5570 5573 5577 5582 5584 5589 5601 5608 5607 5611 5617 5620 5622 5628 5635 5642 5647 5650 5654 5660 5664 5668 5674 5678 5682 5687 5691 5695 5699 5704 5708 5712 5717 5722 5724 5725 5728 5733 5736 5741 5745 5750 5754 5759 5765 5770 5773 5774 5777 5781 5784 5786 5787 5788 5790 5791 5793 5795 5796 5797 5799 5801 5802 5804 5806 5806 5808 5809
5591 5587 5584 5580 5577 5573 5570 5567 5564 5562 5560 5558 5557 5557 5556 5554 5554 5556 5556 5557 5562 5566 5569 5573 5575 5583 5594 5597 5598 5603 5608 5613 5617 5622 5629 5635 5640 5643 5648 5654 5658 5662 5667 5672 5677 5682 5686 5691 5695 5699 5703 5707 5711 5714 5716 5720 5725 5730 5734 5739 5743 5747 5752 5757 5763 5767 5770 5773 5775 5777 5780 5782 5783 5785 5787 5789 5790 5792 5793 5795 5797 5799 5800 5801 5802 5803 5805 5806
5585 5581 5577 5573 5569 5565 5561 5558 5555 5552 5550 5549 5547 5547 5546 5543 5543 5545 5545 5547 5554 5558 5561 5563 5567 5576 5583 5584 5588 5593 5600 5606 5610 5615 5623 5629 5633 5637 5641 5647 5651 5656 5661 5666 5672 5677 5681 5686 5689 5693 5696 5701 5705 5708 5713 5720 5725 5730 5735 5739 5742 5746 5751 5756 5761 5765 5767 5770 5773 5775 5777 5779 5779 5782 5785 5786 5788 5789 5791 5793 5795 5796 5798 5799 5799 5800 5802 5803
5579 5574 5570 5565 5560 5556 5553 5549 5545 5542 5540 5540 5538 5538 5537 5533 5533 5534 5534 5538 5544 5548 5552 5555 5560 5569 5572 5575 5580 5585 5592 5598 5602 5609 5616 5623 5628 5632 5636 5640 5645 5650 5656 5661 5667 5672 5677 5681 5684 5689 5693 5698 5703 5707 5713 5719 5724 5728 5733 5737 5740 5744 5749 5753 5758 5764 5765 5766 5770 5773 5775 5775 5775 5779 5782 5783 5785 5787 5789 5791 5793 5794 5795 5797 5797 5798 5800 5801
5572 5568 5563 5558 5552 5548 5544 5540 5536 5533 5531 5530 5529 5530 5528 5524 5524 5524 5524 5529 5535 5538 5544 5548 5552 5561 5565 5567 5574 5579 5585 5591 5596 5602 5608 5615 5622 5626 5631 5635 5639 5646 5652 5657 5663 5668 5672 5676 5681 5687 5692 5698 5702 5706 5711 5717 5721 5725 5729 5734 5738 5743 5747 5751 5756 5763 5764 5762 5766 5771 5773 5772 5771 5775 5778 5780 5782 5783 5786 5789 5790 5791 5793 5794 5795 5796 5798 5799
5566 5560 5554 5549 5543 5539 5534 5530 5526 5523 5521 5520 5520 5520 5519 5516 5516 5516 5515 5520 5527 5529 5534 5540 5545 5554 5559 5559 5565 5572 5578 5586 5592 5597 5603 5608 5614 5621 5626 5630 5636 5643 5648 5653 5657 5662 5666 5671 5678 5684 5690 5695 5698 5702 5708 5714 5717 5722 5727 5731 5735 5740 5745 5749 5753 5761 5762 5760 5763 5767 5770 5770 5769 5771 5774 5776 5778 5780 5783 5786 5788 5789 5790 5792 5793 5794 5796 5797
5559 5552 5545 5540 5534 5529 5525 5520 5517 5514 5512 5511 5511 5511 5510 5509 5508 5508 5507 5510 5517 5521 5524 5531 5538 5544 5551 5553 5557 5564 5572 5579 5585 5592 5600 5605 5610 5616 5620 5626 5633 5638 5643 5648 5654 5658 5662 5668 5675 5680 5685 5690 5694 5700 5705 5710 5713 5719 5724 5727 5731 5737 5741 5745 5751 5758 5759 5759 5762 5765 5767 5768 5766 5768 5770 5772 5775 5777 5780 5784 5786 5787 5788 5790 5791 5792 5793 5794
5551 5544 5537 5530 5524 5520 5516 5512 5509 5506 5504 5503 5503 5503 5502 5502 5501 5502 5502 5501 5509 5516 5517 5521 5528 5537 5546 5548 5549 5557 5567 5573 5579 5586 5594 5601 5607 5611 5617 5624 5628 5633 5640 5646 5652 5656 5661 5668 5673 5678 5683 5688 5692 5698 5701 5705 5710 5715 5721 5724 5729 5734 5738 5743 5750 5755 5757 5758 5760 5762 5764 5764 5763 5764 5767 5769 5773 5775 5778 5781 5784 5785 5787 5788 5789 5790 5791 5792
5543 5536 5528 5522 5517 5514 5510 5506 5503 5500 5498 5496 5496 5496 5495 5495 5496 5497 5497 5497 5503 5510 5510 5513 5522 5532 5540 5540 5543 5554 5561 5566 5573 5581 5587 5595 5602 5608 5614 5619 5623 5631 5638 5644 5649 5654 5659 5665 5671 5676 5681 5686 5690 5694 5697 5701 5707 5713 5717 5722 5728 5733 5737 5742 5749 5753 5755 5755 5755 5758 5761 5759 5759 5762 5764 5767 5770 5773 5776 5779 5781 5783 5785 5787 5787 5788 5789 5790
5536 5528 5522 5517 5513 5511 5507 5503 5500 5497 5494 5492 5491 5491 5491 5491 5493 5495 5495 5496 5501 5504 5504 5508 5517 5526 5532 5535 5541 5547 5554 5563 5571 5577 5584 5590 5597 5603 5609 5614 5621 5628 5635 5641 5646 5650 5655 5662 5668 5673 5678 5682 5686 5691 5694 5698 5705 5710 5715 5722 5728 5732 5736 5740 5746 5751 5753 5752 5752 5755 5758 5757 5756 5759 5761 5764 5768 5771 5773 5776 5778 5780 5783 5784 5785 5786 5787 5788
5531 5523 5518 5514 5512 5510 5506 5502 5498 5495 5492 5490 5489 5489 5489 5489 5492 5494 5494 5496 5499 5501 5501 5505 5512 5519 5527 5530 5534 5542 5554 5564 5567 5572 5581 5587 5592 5598 5604 5611 5618 5624 5631 5636 5640 5646 5652 5658 5664 5668 5673 5678 5682 5686 5691 5696 5703 5709 5715 5722 5726 5731 5734 5737 5744 5750 5752 5753 5753 5754 5756 5756 5754 5757 5761 5763 5766 5768 5770 5773 5775 5778 5780 5781 5782 5783 5785 5787
5527 5521 5517 5514 5512 5509 5505 5501 5497 5494 5491 5489 5488 5489 5489 5489 5491 5493 5494 5496 5499 5500 5500 5502 5506 5513 5520 5524 5532 5543 5552 5557 5561 5569 5578 5583 5588 5593 5600 5607 5614 5621 5627 5631 5637 5644 5649 5654 5660 5665 5669 5673 5678 5684 5690 5695 5701 5708 5714 5720 5724 5729 5733 5735 5740 5747 5750 5751 5751 5751 5753 5753 5752 5755 5759 5760 5762 5765 5768 5771 5773 5775 5777 5778 5780 5781 5783 5785
5525 5521 5518 5515 5512 5508 5503 5499 5495 5493 5490 5489 5488 5489 5489 5490 5491 5492 5494 5496 5498 5499 5499 5501 5504 5509 5515 5522 5529 5536 5541 5549 5558 5566 5572 5578 5585 5590 5597 5604 5611 5618 5624 5630 5636 5641 5646 5653 5659 5663 5666 5671 5677 5683 5688 5693 5699 5707 5713 5718 5723 5727 5731 5734 5737 5741 5745 5746 5746 5747 5749 5750 5750 5752 5755 5756 5759 5762 5766 5769 5771 5773 5775 5776 5778 5780 5782 5784
5525 5522 5519 5516 5513 5508 5503 5498 5494 5493 5491 5490 5489 5490 5490 5491 5492 5492 5494 5497 5498 5499 5500 5501 5503 5506 5512 5518 5525 5531 5538 5547 5553 5558 5567 5577 5583 5589 5595 5601 5607 5614 5621 5628 5633 5639 5646 5652 5656 5661 5665 5671 5677 5682 5686 5691 5698 5706 5711 5715 5721 5725 5728 5732 5733 5735 5738 5738 5741 5744 5747 5748 5747 5749 5752 5754 5758 5761 5764 5767 5770 5772 5773 5775 5777 5779 5781 5782
5527 5524 5521 5518 5515 5510 5505 5500 5497 5495 5494 5493 5493 5493 5493 5494 5494 5495 5497 5498 5498 5500 5502 5503 5504 5505 5510 5515 5522 5530 5536 5542 5547 5554 5564 5572 5579 5586 5591 5597 5604 5610 5617 5623 5630 5637 5644 5648 5653 5659 5664 5669 5674 5679 5685 5690 5696 5703 5707 5710 5717 5723 5726 5729 5729 5730 5731 5732 5737 5742 5745 5746 5745 5745 5749 5754 5757 5759 5760 5764 5768 5770 5772 5774 5776 5778 5780 5781
5530 5526 5523 5521 5517 5514 5510 5506 5503 5501 5499 5498 5498 5498 5498 5499 5499 5499 5500 5499 5498 5500 5502 5504 5505 5507 5509 5513 5519 5527 5533 5539 5546 5554 5562 5568 5576 5584 5590 5597 5604 5608 5613 5620 5628 5635 5639 5644 5651 5656 5661 5665 5670 5676 5682 5686 5692 5697 5701 5706 5713 5719 5721 5723 5724 5725 5727 5731 5736 5739 5742 5743 5742 5742 5747 5752 5754 5756 5758 5762 5765 5767 5770 5773 5774 5777 5779 5779
5534 5530 5528 5525 5522 5519 5516 5512 5510 5507 5505 5504 5503 5503 5503 5503 5503 5502 5501 5500 5499 5500 5502 5503 5505 5507 5510 5515 5519 5526 5533 5538 5545 5553 5560 5567 5575 5582 5590 5597 5603 5609 5614 5620 5625 5631 5636 5642 5648 5652 5657 5662 5667 5673 5677 5680 5685 5691 5696 5701 5708 5713 5715 5717 5720 5722 5725 5731 5735 5737 5739 5741 5740 5741 5745 5750 5753 5755 5757 5759 5762 5765 5769 5771 5773 5775 5777 5778
5538 5535 5532 5529 5526 5523 5520 5517 5514 5512 5510 5508 5507 5506 5505 5505 5504 5503 5502 5501 5501 5501 5502 5503 5506 5508 5512 5516 5521 5526 5533 5538 5545 5552 5558 5565 5571 5578 5587 5594 5602 5610 5616 5620 5624 5629 5634 5639 5643 5649 5655 5659 5664 5670 5674 5679 5684 5689 5695 5700 5705 5709 5711 5715 5719 5721 5725 5729 5732 5735 5737 5738 5739 5741 5744 5748 5752 5753 5755 5756 5758 5762 5766 5769 5772 5774 5776 5777
5542 5539 5536 5533 5530 5527 5524 5521 5518 5515 5513 5511 5509 5508 5507 5506 5506 5505 5504 5503 5503 5503 5504 5506 5508 5510 5513 5517 5522 5528 5534 5539 5545 5551 5558 5564 5571 5578 5586 5594 5602 5608 5613 5619 5626 5630 5635 5639 5644 5649 5654 5659 5664 5668 5674 5679 5683 5689 5695 5698 5702 5706 5710 5714 5718 5721 5724 5727 5729 5732 5734 5735 5737 5740 5742 5746 5748 5750 5751 5753 5755 5758 5763 5767 5771 5773 5775 5777
5546 5542 5539 5536 5532 5529 5526 5523 5520 5518 5515 5514 5512 5511 5510 5509 5508 5508 5506 5505 5505 5506 5507 5509 5511 5513 5516 5519 5524 5530 5537 5541 5546 5552 5558 5565 5572 5579 5586 5594 5601 5607 5612 5620 5626 5630 5635 5640 5646 5650 5653 5658 5663 5667 5673 5677 5680 5687 5692 5694 5699 5705 5708 5713 5717 5720 5723 5724 5727 5730 5732 5734 5735 5737 5739 5741 5744 5746 5747 5750 5754 5757 5760 5765 5768 5772 5774 5776
5548 5545 5542 5539 5535 5531 5528 5526 5523 5521 5519 5517 5516 5514 5513 5512 5511 5510 5509 5508 5508 5509 5511 5512 5514 5516 5519 5522 5527 5532 5537 5543 5547 5553 5559 5565 5571 5578 5586 5594 5602 5609 5615 5621 5627 5631 5635 5640 5645 5647 5651 5656 5660 5665 5670 5674 5679 5685 5689 5693 5699 5703 5705 5709 5713 5716 5719 5721 5724 5728 5731 5733 5733 5735 5735 5735 5737 5741 5743 5748 5754 5756 5759 5762 5766 5769 5772 5774
5551 5548 5544 5541 5538 5535 5532 5529 5527 5524 5522 5520 5519 5517 5515 5514 5513 5512 5512 5512 5512 5513 5514 5515 5517 5519 5522 5526 5531 5534 5539 5544 5549 5555 5560 5565 5572 5578 5586 5595 5603 5610 5616 5621 5627 5633 5637 5640 5643 5645 5650 5655 5658 5663 5668 5671 5676 5683 5689 5694 5697 5699 5701 5704 5708 5712 5715 5718 5721 5725 5730 5731 5731 5733 5733 5731 5732 5737 5741 5746 5753 5756 5759 5761 5764 5767 5769 5771
5554 5551 5547 5544 5541 5538 5535 5532 5530 5527 5524 5522 5520 5518 5517 5517 5516 5516 5516 5516 5516 5517 5518 5519 5521 5523 5526 5530 5534 5537 5542 5547 5551 5556 5562 5568 5574 5580 5587 5596 5604 5610 5616 5621 5627 5633 5636 5639 5642 5645 5650 5656 5659 5663 5666 5669 5674 5681 5688 5692 5695 5697 5700 5703 5706 5710 5713 5716 5719 5723 5727 5729 5730 5731 5732 5731 5731 5736 5739 5744 5750 5755 5758 5761 5763 5765 5767 5769
5557 5554 5550 5547 5544 5540 5537 5534 5532 5529 5526 5524 5522 5521 5520 5520 5520 5519 5519 5519 5520 5521 5522 5523 5525 5527 5530 5533 5536 5539 5544 5550 5553 5558 5564 5570 5575 5581 5587 5596 5603 5609 5616 5620 5625 5632 5635 5637 5641 5645 5649 5653 5656 5660 5664 5667 5672 5678 5682 5687 5691 5694 5699 5702 5705 5709 5712 5715 5718 5721 5724 5727 5729 5731 5732 5731 5732 5734 5737 5741 5747 5752 5756 5759 5761 5762 5765 5767
5559 5555 5552 5549 5546 5542 5539 5537 5534 5532 5529 5527 5526 5524 5523 5523 5522 5522 5522 5523 5523 5524 5525 5527 5529 5531 5534 5537 5539 5542 5546 5550 5555 5560 5565 5570 5576 5581 5587 5595 5603 5609 5616 5620 5623 5629 5634 5636 5640 5643 5646 5650 5655 5660 5664 5668 5673 5677 5679 5684 5688 5691 5697 5701 5704 5707 5710 5712 5715 5719 5722 5725 5728 5731 5732 5732 5732 5733 5735 5739 5743 5748 5753 5757 5759 5761 5763 5765
5560 5557 5554 5551 5548 5545 5542 5539 5537 5534 5532 5530 5529 5528 5527 5526 5525 5525 5526 5526 5527 5528 5529 5531 5532 5534 5536 5539 5541 5544 5547 5551 5557 5561 5565 5569 5576 5583 5589 5596 5603 5609 5615 5619 5621 5626 5631 5634 5639 5642 5645 5650 5656 5661 5665 5667 5673 5677 5680 5682 5686 5690 5695 5698 5702 5706 5708 5712 5714 5717 5720 5723 5726 5729 5730 5730 5731 5732 5733 5736 5740 5745 5750 5755 5756 5759 5761 5762
5561 5558 5555 5553 5550 5548 5545 5542 5540 5537 5535 5533 5532 5532 5532 5530 5529 5529 5530 5530 5530 5531 5533 5534 5536 5537 5539 5542 5544 5546 5548 5554 5559 5561 5565 5570 5576 5585 5592 5597 5603 5608 5613 5618 5621 5624 5628 5632 5637 5640 5644 5650 5655 5661 5664 5666 5670 5675 5679 5681 5683 5688 5693 5697 5702 5705 5707 5712 5714 5715 5718 5721 5723 5726 5726 5726 5728 5729 5731 5734 5737 5742 5747 5751 5753 5756 5758 5760
5562 5560 5557 5554 5552 5550 5548 5546 5544 5541 5539 5537 5535 5535 5536 5534 5533 5533 5533 5534 5534 5535 5536 5537 5538 5539 5542 5545 5547 5549 5551 5556 5560 5563 5568 5573 5578 5585 5593 5598 5603 5608 5613 5618 5621 5624 5627 5630 5635 5638 5641 5646 5650 5655 5659 5661 5665 5671 5675 5680 5682 5686 5692 5698 5701 5703 5706 5710 5713 5714 5716 5718 5721 5722 5721 5722 5724 5726 5729 5732 5735 5739 5743 5747 5749 5752 5755 5757
5564 5561 5559 5556 5554 5552 5550 5549 5547 5545 5543 5541 5539 5538 5538 5537 5537 5537 5537 5537 5538 5538 5539 5540 5540 5542 5545 5548 5551 5553 5556 5559 5564 5567 5571 5576 5580 5586 5592 5598 5604 5610 5615 5618 5620 5623 5627 5629 5633 5638 5640 5642 5645 5648 5652 5657 5662 5667 5672 5678 5682 5685 5690 5695 5698 5700 5704 5708 5711 5713 5715 5716 5718 5719 5718 5720 5723 5724 5727 5730 5733 5736 5739 5742 5745 5748 5751 5754
5565 5562 5560 5558 5556 5553 5551 5550 5549 5548 5546 5544 5543 5542 5541 5540 5540 5540 5540 5541 5541 5541 5542 5542 5543 5545 5547 5551 5554 5558 5560 5563 5566 5569 5573 5577 5581 5587 5593 5599 5606 5610 5614 5616 5619 5623 5627 5629 5633 5639 5642 5645 5649 5652 5655 5659 5663 5666 5670 5675 5680 5683 5687 5692 5696 5699 5702 5706 5709 5711 5712 5714 5717 5717 5717 5719 5721 5723 5726 5728 5730 5733 5736 5739 5742 5745 5748 5751
5567 5564 5561 5559 5557 5555 5553 5551 5550 5549 5548 5547 5545 5545 5544 5544 5543 5543 5543 5543 5543 5544 5545 5546 5547 5548 5550 5553 5557 5560 5563 5565 5568 5572 5575 5578 5582 5587 5592 5598 5605 5609 5611 5615 5620 5623 5625 5628 5634 5639 5643 5648 5652 5657 5660 5662 5665 5668 5671 5674 5679 5683 5686 5689 5694 5698 5700 5703 5706 5708 5710 5712 5714 5715 5716 5716 5719 5722 5725 5727 5729 5732 5735 5737 5740 5743 5746 5748
5568 5566 5563 5561 5558 5556 5555 5553 5552 5551 5550 5549 5548 5547 5547 5546 5546 5546 5546 5546 5547 5547 5548 5549 5550 5551 5553 5556 5559 5561 5562 5565 5569 5573 5576 5578 5582 5588 5592 5597 5604 5607 5609 5614 5619 5621 5623 5628 5634 5639 5643 5647 5651 5655 5658 5661 5664 5667 5671 5674 5679 5683 5685 5687 5692 5696 5698 5701 5703 5705 5707 5709 5711 5712 5714 5715 5717 5720 5723 5725 5728 5730 5733 5736 5739 5741 5744 5746
5570 5567 5565 5563 5560 5559 5557 5555 5554 5553 5552 5551 5551 5550 5550 5549 5549 5549 5549 5550 5551 5551 5551 5552 5553 5554 5556 5559 5561 5562 5563 5565 5568 5572 5575 5578 5582 5587 5592 5597 5602 5605 5608 5614 5618 5620 5624 5629 5634 5638 5642 5645 5650 5654 5656 5659 5663 5665 5669 5673 5677 5681 5685 5687 5690 5693 5696 5698 5701 5702 5704 5706 5707 5709 5711 5713 5715 5718 5721 5724 5726 5728 5731 5734 5736 5738 5741 5743
5571 5569 5567 5565 5563 5561 5559 5558 5556 5555 5555 5554 5554 5553 5553 5552 5551 5551 5552 5553 5553 5554 5554 5555 5556 5557 5558 5561 5564 5565 5566 5567 5569 5572 5575 5578 5582 5586 5591 5597 5601 5605 5609 5613 5617 5620 5625 5629 5633 5638 5641 5644 5648 5653 5655 5658 5661 5664 5667 5671 5674 5677 5680 5684 5687 5690 5693 5695 5697 5699 5701 5702 5703 5705 5707 5710 5712 5715 5718 5721 5724 5726 5728 5731 5733 5735 5737 5739
5573 5571 5569 5567 5565 5563 5562 5560 5558 5558 5557 5557 5557 5556 5555 5554 5554 5553 5554 5554 5555 5556 5557 5557 5559 5559 5560 5563 5565 5567 5568 5569 5571 5573 5576 5579 5583 5587 5591 5597 5602 5605 5609 5613 5617 5620 5625 5629 5633 5638 5641 5643 5647 5651 5654 5656 5659 5662 5665 5669 5672 5674 5676 5680 5685 5688 5690 5692 5694 5696 5697 5698 5700 5702 5705 5707 5710 5713 5716 5719 5722 5724 5726 5728 5730 5732 5734 5736
5574 5572 5570 5569 5567 5566 5564 5562 5561 5560 5559 5559 5559 5559 5558 5557 5557 5556 5556 5557 5557 5558 5559 5560 5561 5562 5562 5564 5566 5568 5569 5571 5573 5576 5578 5582 5586 5589 5593 5597 5601 5605 5608 5612 5616 5619 5624 5630 5634 5637 5640 5643 5646 5649 5652 5654 5656 5659 5663 5666 5669 5672 5674 5678 5682 5685 5687 5689 5691 5692 5694 5695 5698 5700 5703 5706 5709 5712 5714 5717 5720 5722 5724 5726 5728 5730 5731 5733